User: anonymous   Login
Location: Bowman Observatory
(41.0326°N, 73.6210°W)
Time: 22:48:33
(UTC-04:00)
Language:

Cosmos 2297 - Orbit

View from above orbital plane
View from above orbital plane
View from above satellite
View from above satellite

Ground track
Ground track

The orbit data is extracted from the following two-line orbital elements,

1 23404U 94077A   15115.17433803  .00000305  00000-0  18709-3 0  9998
2 23404 071.0113 134.1347 0017339 259.5636 163.9549 14.13436589 53289
Epoch (UTC): 25 April 2015 04:11:02
Eccentricity: 0.0017339
inclination: 71.0113°
perigee height: 835 km
apogee height: 860 km
right ascension of ascending node: 134.1347°
argument of perigee: 259.5636°
revolutions per day: 14.13436589
mean anomaly at epoch: 163.9549°
orbit number at epoch: 5328

The dashed part of the orbit path shows where the satellite is in the earth's shadow,  

DLR